Location: Paynes Store
(36.3887°N, 86.2625°W)
Time: 05:57:12
(UTC+00:00)

Daily predictions for brighter satellites

Satellite Brightness Start Highest point End
(mag) Time Altitude Azimuth Time Altitude Azimuth Time Altitude Azimuth
STARLINK-1271 3.6 01:15:17 10° SW 01:19:25 90° NNE 01:23:34 10° NE
NOSS 2-3 (C) 3.8 01:15:41 10° S 01:19:38 44° ESE 01:23:58 10° NE
STARLINK-1153 4.4 01:16:23 10° WNW 01:20:22 47° SW 01:24:20 10° SSE
SJ-6B 3.1 01:17:44 10° SSE 01:21:19 46° ENE 01:24:54 10° N
CZ-2C R/B 3.4 01:18:49 10° S 01:24:08 82° WSW 01:29:48 10° NNW
STARLINK-1154 3.8 01:20:15 10° SW 01:24:23 82° NW 01:28:32 10° NE
Cosmos 389 Rocket 3.1 01:21:48 10° SSE 01:24:57 34° E 01:28:08 10° NNE
Hubble Space Telescope 2.0 01:24:10 10° WSW 01:27:41 27° S 01:31:11 10° ESE
Ariane Rocket 3.1 01:22:58 10° SSE 01:28:02 88° WSW 01:33:08 10° NNW
Cosmos 1908 Rocket 4.4 01:24:19 10° NNE 01:28:21 33° ENE 01:32:22 10° SE
Cosmos 1513 Rocket 4.5 01:22:42 10° N 01:28:46 68° E 01:34:53 10° SSE
STARLINK-1197 3.9 01:25:14 10° SW 01:29:21 74° NW 01:33:30 10° NE
BREEZE M DEB (TANK) 4.5 01:16:11 10° SW 01:30:39 54° SE 01:34:42 10° ENE
Cosmos 2251 Rocket 3.6 01:26:09 10° NNW 01:31:23 85° WSW 01:36:37 10° SSE
STARLINK-1190 4.4 01:28:40 10° NW 01:32:37 42° NE 01:36:33 10° ESE
Meteor 1-11 Rocket 4.3 01:27:44 10° NNW 01:33:16 61° W 01:38:41 10° S
STARLINK-1198 4.1 01:30:16 10° SW 01:34:22 66° NW 01:38:29 10° NE
SEDSat Delta rocket 4.3 01:30:59 10° W 01:37:37 57° S 01:44:05 10° ESE
STARLINK-1129 4.2 01:33:38 10° NW 01:37:38 46° NE 01:41:26 11° ESE
Cosmos 1844 4.2 01:33:19 10° SSW 01:38:54 67° WNW 01:44:36 10° NNE
STARLINK-1199 4.3 01:35:15 10° WSW 01:39:19 60° NW 01:43:25 10° NE
STARLINK-1157 3.0 01:37:54 10° NW 01:41:12 89° NE 01:44:03 13° SE
Resurs 1-3 4.2 01:37:40 10° SE 01:41:47 41° ENE 01:45:55 10° N
ASTEX 1 3.4 01:37:35 10° SSE 01:42:25 68° E 01:47:18 10° N
Cosmos 1464 Rocket 4.1 01:36:07 10° N 01:42:30 87° E 01:48:53 10° S
STARLINK-1134 4.1 01:38:35 10° NW 01:42:38 51° NE 01:46:12 13° ESE
DMSP B5D2-2 4.1 01:38:11 10° NNE 01:43:28 71° E 01:48:43 10° S
STARLINK-1210 4.5 01:40:17 10° WSW 01:44:19 54° NW 01:48:23 10° NE
Cosmos 2056 Rocket 3.7 01:40:30 10° S 01:45:23 48° ESE 01:50:17 10° NNE
TELKOM 3 4.4 01:44:32 10° NNW 01:46:20 24° NNE 01:47:49 13° E
STARLINK-1200 4.4 01:43:13 10° S 01:46:48 29° SE 01:50:23 10° ENE
STARLINK-1135 4.0 01:43:32 10° NW 01:47:38 56° NE 01:51:00 14° ESE
Cosmos 1743 3.0 01:45:11 10° N 01:48:52 46° E 01:52:08 12° SSE
STARLINK-1192 4.3 01:48:04 10° SSW 01:51:45 32° SE 01:55:27 10° ENE
Centaur AC-125 4.1 01:48:43 10° SW 01:52:05 34° SSE 02:02:46 10° ESE
Cosmos 2242 Rocket 3.7 01:47:52 10° S 01:52:15 78° W 01:56:40 10° N
STARLINK-1141 3.8 01:48:29 10° NW 01:52:36 62° NE 01:55:46 16° ESE
FREGAT/IRIS 4.1 01:50:12 10° SSW 01:52:37 30° W 01:55:02 10° NNW
GPS 2-04 Rocket1 3.5 01:50:46 10° SW 01:53:46 26° SSE 01:55:48 16° ESE
STARLINK-1244 4.1 01:52:55 10° SSW 01:56:42 35° SE 02:00:29 10° ENE
STARLINK-1140 3.7 01:53:28 10° NW 01:57:35 69° NE 02:00:34 18° ESE
MOS 1 Rocket 3.6 01:53:25 10° N 01:57:47 64° WNW 02:02:00 10° SSW
H-2A R/B 3.0 01:59:17 10° SW 02:01:31 20° S 02:03:58 15° SSE
STARLINK-1138 4.0 01:57:46 10° SSW 02:01:38 40° SE 02:05:31 10° ENE
STARLINK-1156 3.6 01:58:25 10° NW 02:02:34 77° NE 02:05:21 20° SE
STARLINK-1143 3.9 02:02:39 10° SSW 02:06:35 44° SE 02:10:32 10° ENE
STARLINK-1148 3.6 02:03:23 10° NW 02:07:32 85° NE 02:10:07 22° SE
MetOp-A 4.2 02:03:05 10° S 02:08:26 79° WSW 02:13:48 10° NNW
ERBS 2.1 02:06:19 10° SW 02:09:36 85° SE 02:12:54 10° NE
STARLINK-1203 3.8 02:06:49 10° SSW 02:10:52 50° SE 02:14:56 10° ENE
STARLINK-1241 3.7 02:07:34 10° SSW 02:11:33 50° SE 02:15:34 10° ENE
Okean 1-7 3.1 02:07:40 10° S 02:11:58 80° W 02:16:14 10° N
STARLINK-1158 3.6 02:08:22 10° NW 02:12:31 86° SW 02:14:55 24° SE
Cosmos 1452 Rocket 4.3 02:13:28 19° SSE 02:16:13 31° E 02:20:49 10° NE
STARLINK-1239 3.6 02:12:28 10° SSW 02:16:30 56° SE 02:20:34 10° NE
Tsikada Rocket 4.1 02:10:19 10° S 02:16:32 82° W 02:22:43 10° N
STARLINK-1162 3.6 02:13:22 10° NW 02:17:30 78° SW 02:19:42 27° SE
Cosmos 2082 Rocket 4.0 02:14:50 10° NNE 02:18:39 18° NE 02:21:36 13° E
Cosmos 1420 Rocket 4.1 02:15:35 10° S 02:20:37 52° ESE 02:25:40 10° NNE
Cosmos 407 Rocket 3.5 02:16:05 10° NNW 02:21:27 76° ENE 02:24:56 22° SSE
STARLINK-1240 3.5 02:17:24 10° SW 02:21:29 63° SE 02:25:35 10° NE
Cosmos 1833 Rocket 3.8 02:17:54 10° N 02:22:49 30° ENE 02:25:34 20° ESE
CZ-2C R/B 3.6 02:18:51 10° N 02:24:18 53° WNW 02:29:43 10° SSW
STARLINK-1216 3.5 02:22:20 10° SW 02:26:26 70° SE 02:30:34 10° NE
Cosmos 1975 2.7 02:22:46 10° N 02:26:49 72° E 02:28:48 28° SSE
Aureole 1 Rocket 3.5 02:22:45 10° NNW 02:27:15 67° ENE 02:30:36 25° SSE
STARLINK-1159 3.8 02:23:19 10° NW 02:27:25 62° SW 02:29:15 30° SSE
Meteor 1-4 Rocket 2.5 02:27:29 16° SSW 02:30:06 75° W 02:33:34 10° N
STARLINK-1237 3.5 02:27:17 10° SW 02:31:24 78° SE 02:35:33 10° NE
Cosmos 2221 Rocket 3.7 02:29:37 27° SSE 02:31:54 55° E 02:36:19 10° NNE
STARLINK-1171 4.0 02:28:21 10° NW 02:32:25 55° SW 02:34:04 32° SSE
USA 245 3.8 02:33:12 34° E 02:33:44 36° ENE 02:36:39 10° N
Cosmos 1515 4.4 02:31:17 10° SSW 02:35:01 54° W 02:38:46 10° N
Meteor 2-9 Rocket 4.0 02:29:38 10° N 02:35:01 81° E 02:38:11 25° SSE
STARLINK-1202 3.5 02:32:15 10° SW 02:36:24 87° SE 02:40:33 10° NE
STARLINK-1155 4.1 02:33:21 10° WNW 02:37:21 49° SW 02:38:49 33° S
SPOT 3 Rocket 4.5 02:32:31 10° S 02:37:21 45° W 02:42:16 10° NNW
STARLINK-1087 4.1 02:36:30 10° WNW 02:37:29 22° W 02:37:29 22° W
Cosmos 1437 Rocket 4.0 02:39:15 25° ENE 02:39:15 25° ENE 02:41:54 10° NE
EXPRESS MD2 2.7 02:38:13 10° SW 02:40:50 68° SE 02:45:27 10° NE
ATLAS 3B CENTAUR R/B 3.6 02:29:28 10° SW 02:41:12 34° S 02:43:50 28° SE
Resurs 01 Rocket 2.1 02:38:50 21° S 02:41:41 59° W 02:46:06 10° NNW
STARLINK-1166 4.3 02:38:22 10° WNW 02:42:18 44° SW 02:43:36 33° S
SPOT 1/Viking Rocket 4.0 02:42:35 32° ESE 02:44:28 45° ENE 02:49:22 10° N
Cosmos 1190 Rocket 4.0 02:40:27 10° NNW 02:45:40 78° WSW 02:48:19 30° S
STARLINK-1246 3.7 02:42:12 10° SW 02:46:20 76° NW 02:50:29 10° NE
STARLINK-1165 4.5 02:43:23 10° WNW 02:47:15 39° SW 02:48:23 32° SSW
Cosmos 2278 Rocket 2.5 02:41:49 10° SSW 02:47:28 70° WNW 02:53:08 10° NNE
Cosmos 1782 Rocket 4.2 02:43:12 10° NNW 02:47:35 55° W 02:50:16 22° SSW
Cosmos 1140 Rocket 3.5 02:43:51 10° NNW 02:49:04 81° WSW 02:51:30 33° S
Sich 1 Rocket 3.6 02:44:47 10° N 02:49:24 85° W 02:51:20 35° S
STARLINK-1107 4.5 02:45:40 10° NW 02:49:36 41° NE 02:50:50 32° E
CREW DRAGON DEMO-1 DEB 2.9 02:47:15 10° NW 02:50:14 67° WSW 02:50:14 67° WSW
STARLINK-1224 3.9 02:47:12 10° SW 02:51:19 69° NW 02:55:27 10° NE
SL-4 R/B 3.6 02:49:47 10° NNE 02:51:20 15° NE 02:51:20 15° NE
STARLINK-1066 4.3 02:50:38 10° NW 02:54:37 45° NE 02:55:39 36° ENE
STARLINK-1225 4.1 02:52:12 10° WSW 02:56:18 62° NW 03:00:24 10° NE
STARLINK-1081 4.1 02:55:34 10° NW 02:59:36 49° NE 03:00:25 42° ENE
Cosmos 1544 4.2 02:56:45 10° NNW 03:00:09 38° W 03:01:22 29° SW
Cosmos 2142 Rocket 4.4 02:54:31 10° N 03:00:41 81° E 03:03:28 35° SSE
STARLINK-1230 4.3 02:57:13 10° WSW 03:01:17 56° NW 03:05:22 10° NE
ERS-1 Rocket 3.4 03:00:12 39° ESE 03:01:19 46° ENE 03:06:08 10° N
Cosmos 909 Rocket 4.4 02:54:04 10° NNW 03:01:25 66° WSW 03:04:36 31° S
Terra 3.0 03:01:34 27° E 03:02:07 27° ENE 03:06:07 10° NNE
SAR-Lupe-2 4.1 02:58:53 10° N 03:02:25 56° WNW 03:03:41 34° SW
Okean 2 Rocket 2.9 02:58:22 10° N 03:02:48 81° E 03:03:40 57° SSE
SeaSat 1 4.3 02:59:15 10° ENE 03:00:45 16° ENE 03:00:45 16° ENE
STARLINK-1070 3.9 03:00:31 10° NW 03:04:35 54° NE 03:05:11 49° ENE
STARLINK-1243 4.5 03:02:14 10° WSW 03:06:16 51° NW 03:10:19 10° NE
Hubble Space Telescope 2.8 03:05:13 10° WSW 03:06:44 17° SW 03:06:44 17° SW
STARLINK-1069 3.8 03:05:28 10° NW 03:09:34 60° NE 03:09:58 56° ENE
Cosmos 1954 Rocket 4.0 03:06:27 10° NNW 03:11:44 79° WSW 03:13:15 47° S
Spot 2 Rocket 3.7 03:11:18 39° S 03:13:05 65° WSW 03:18:05 10° NNW
Okean 1 Rocket 4.2 03:10:35 10° NNE 03:14:11 30° ENE 03:14:11 30° ENE
STARLINK-1085 3.6 03:10:27 10° NW 03:14:34 67° NE 03:14:46 65° ENE
Nadezhda 4 Rocket 4.1 03:14:14 44° SE 03:15:36 53° E 03:21:32 10° NNE
Cosmos 371 Rocket 3.6 03:12:56 23° SSW 03:15:51 64° WNW 03:20:43 10° NNE
Lacrosse 5 3.0 03:11:44 10° NNW 03:16:20 34° NE 03:17:49 28° ENE
Cosmos 2151 Rocket 3.5 03:11:52 10° N 03:16:24 78° E 03:16:49 70° SE
Intercosmos 24 3.7 03:15:31 10° N 03:18:58 72° W 03:18:58 72° W
STARLINK-1086 3.6 03:15:24 10° NW 03:19:32 74° NE 03:19:32 74° NE
IGS 5A 3.9 03:23:40 48° SW 03:24:11 51° W 03:28:15 10° NNW
STARLINK-1095 3.6 03:20:23 10° NW 03:24:20 78° N 03:24:20 78° N
Cosmos 676 Rocket 4.4 03:20:58 10° NNW 03:26:05 55° WSW 03:27:26 43° SSW
Cosmos 2279 Rocket 4.1 03:22:35 10° N 03:28:48 72° W 03:31:05 41° SSW
STARLINK-1077 3.7 03:25:21 10° NW 03:29:07 73° NW 03:29:07 73° NW
CARTOSAT-1 3.4 03:30:01 86° NE 03:30:01 86° NE 03:34:18 10° NNW
COSMOS 2406 4.0 03:25:06 10° NW 03:30:30 43° WSW 03:32:22 33° SSW
Cosmos 1331 Rocket 4.3 03:31:02 50° E 03:31:02 50° E 03:35:31 10° NNE
Meteor 1-23 Rocket 4.1 03:32:25 57° S 03:33:40 84° E 03:39:22 10° N
STARLINK-1075 3.9 03:30:20 10° NW 03:33:54 64° WNW 03:33:54 64° WNW
H-2A ROCKET BODY 4.4 03:31:37 10° SW 03:38:33 44° SE 04:12:44 10° E
STARLINK-1093 4.1 03:35:19 10° NW 03:38:41 55° WNW 03:38:41 55° WNW
Cosmos 1461 3.3 03:40:57 61° N 03:40:57 61° N 03:44:40 10° NNE
STARLINK-1074 4.4 03:40:18 10° NW 03:43:27 48° WNW 03:43:27 48° WNW
Cosmos 2297 3.7 03:44:50 54° SSW 03:46:11 82° WNW 03:51:54 10° NNE
SPOT 5 3.0 03:46:54 68° SW 03:47:20 72° WSW 03:52:35 10° NNW
Cosmos 1092 Rocket 3.8 03:55:34 68° ESE 03:55:59 71° E 04:02:05 10° NNE
Cosmos 304 Rocket 4.4 03:58:30 48° W 03:59:05 51° WNW 04:03:46 10° N
Cosmos 2082 Rocket 2.3 03:57:33 10° NNW 04:03:12 63° WSW 04:03:27 62° WSW
Cosmos 1627 Rocket 4.4 04:06:15 66° ESE 04:06:25 66° E 04:12:43 10° NNE
Cosmos 1833 Rocket 3.7 04:01:42 10° NW 04:06:40 33° WSW 04:07:16 32° WSW
Thor Agena Rocket 4.0 04:02:45 10° NNE 04:07:01 51° ENE 04:07:01 51° ENE
Cosmos 2369 Rocket 3.0 04:13:13 39° ENE 04:13:13 39° ENE 04:17:10 10° NNE
Cosmos 1943 Rocket 2.4 04:14:48 60° NE 04:14:48 60° NE 04:19:27 10° NNE
ISS -1.0 04:12:16 10° NW 04:13:28 19° NNW 04:13:28 19° NNW
Cosmos 2195 Rocket 4.3 04:15:42 80° S 04:16:06 88° E 04:22:25 10° N
Cosmos 1975 Rocket 4.1 04:26:05 43° N 04:26:05 43° N 04:29:09 10° N
Cosmos 1428 Rocket 4.4 04:25:18 81° E 04:25:19 81° E 04:31:38 10° N
USA 215 4.4 04:25:17 23° E 04:28:32 37° NNE 04:34:25 10° NNW
Meteor 1-21 4.4 04:35:20 65° NE 04:35:20 65° NE 04:40:10 10° NNE
Terra 3.5 04:40:27 26° W 04:40:27 26° W 04:43:47 10° NW
SeaSat 1 3.2 04:35:46 10° NNE 04:40:28 46° WNW 04:40:31 46° WNW
Cosmos 2026 Rocket 4.2 04:46:18 61° W 04:46:34 62° W 04:52:50 10° N
Cosmos 1553 Rocket 4.1 04:43:42 10° N 04:49:33 65° ENE 04:49:33 65° ENE
NOSS 3-4 (A) 4.3 04:52:00 37° ENE 04:52:00 37° ENE 04:55:57 10° NE
NOSS 3-4 (C) 4.3 04:52:07 37° ENE 04:52:07 37° ENE 04:56:03 10° NE
CENTAUR R/B 4.1 04:49:42 10° NNW 04:57:22 41° NE 05:01:10 28° E
Lacrosse 5 3.6 04:54:40 10° WNW 04:57:00 24° WNW 04:57:00 24° WNW
Cosmos 2266 Rocket 4.2 05:17:31 62° NE 05:17:31 62° NE 05:22:42 10° NNE
ATLAS 2AS CENTAUR R/B 2.9 05:17:31 79° SSW 05:18:08 89° ESE 05:26:11 10° NNE
SL-4 R/B 4.3 05:22:06 25° NE 05:22:06 25° NE 05:24:07 10° NE
COSMOS 2455 3.5 05:28:13 48° NE 05:28:13 48° NE 05:32:39 10° NNE
ALOS 2 4.4 05:30:34 30° NNW 05:30:34 30° NNW 05:32:49 10° NNW
Cosmos 2098 Rocket 4.5 05:29:07 57° ENE 05:29:07 57° ENE 05:35:54 10° NNE
NOSS 3-2 (A) 3.9 05:22:22 10° NNW 05:30:14 85° WSW 05:30:50 78° S
USA 238 DEB 3.8 05:31:32 10° NW 05:38:30 74° W 05:38:30 74° W
USA 238 3.8 05:31:38 10° NW 05:38:37 74° W 05:38:37 74° W
ATLAS CENTAUR R/B 3.6 05:50:00 24° NNE 05:50:00 24° NNE 05:51:45 10° NNE
Cosmos 2369 Rocket 4.0 05:54:58 21° WNW 05:56:00 22° WNW 06:00:21 10° N
Cosmos 1943 Rocket 4.5 05:56:16 13° WNW 05:58:14 15° NW 06:01:22 10° NNW
Cosmos 2315 Rocket 4.1 05:56:42 10° N 06:02:13 73° N 06:02:13 73° N
Meteor 1-24 Rocket 4.4 06:09:34 46° NE 06:09:34 46° NE 06:13:34 10° NNE
USA 215 3.6 06:12:35 53° W 06:12:35 53° W 06:17:45 10° NW
CZ-4C R/B 4.3 06:25:54 14° E 06:25:54 14° E 06:27:23 10° ENE
Helios 1B rocket 4.4 06:25:43 10° N 06:27:46 27° NNW 06:27:46 27° NNW
Meteor 2-5 Rocket 4.2 06:31:42 53° NW 06:31:42 53° NW 06:36:16 10° N
NOSS 3-2 (C) 4.4 06:28:59 10° NW 06:36:09 51° WSW 06:36:09 51° WSW
ATLAS 3B R/B 2.6 06:39:41 10° NNW 06:46:34 83° ENE 06:47:30 69° SE
Nadezhda 1 Rocket 4.3 06:41:40 10° N 06:47:46 57° E 06:48:24 55° ESE
CENTAUR R/B 3.4 06:40:18 10° NW 06:48:18 52° WSW 06:48:18 52° WSW
IRAS Rocket 4.3 06:49:51 75° NE 06:49:51 75° NE 06:55:08 10° NNW
Cosmos 2219 4.4 06:51:41 10° N 06:56:57 38° ENE 06:59:00 28° ESE
Cosmos 2297 Rocket 3.4 07:03:38 10° N 07:08:54 38° ENE 07:11:45 23° ESE
BREEZE-M DEB (TANK) 4.5 07:12:55 25° ESE 07:12:55 25° ESE 07:18:51 10° ENE
SL-16 R/B 2.8 07:13:43 45° SE 07:15:29 62° ENE 07:21:33 10° N
Cosmos 468 Rocket 4.2 07:16:46 63° E 07:16:46 63° E 07:21:32 10° NNE
SJ 16-02 2.8 07:13:05 10° N 07:17:06 32° ENE 07:17:47 31° E
Timation 2 Rocket 3.9 07:11:00 10° NNW 07:16:55 68° W 07:16:55 68° W
Cosmos 1745 Rocket 4.0 07:17:18 63° W 07:17:27 63° W 07:23:33 10° N
USA 81 4.1 07:17:46 71° E 07:17:46 71° E 07:23:00 10° N
ADEOS II 3.5 07:18:30 10° NE 07:22:59 28° E 07:24:11 26° ESE
Cosmos 1703 4.5 07:29:00 39° ENE 07:29:00 39° ENE 07:32:05 10° NNE
CZ-2D R/B 1.9 07:27:13 10° NNE 07:32:28 84° WNW 07:32:35 83° WSW
Resurs 1-4 Rocket 2.0 07:29:17 10° N 07:34:35 78° WNW 07:34:46 77° WSW
Cosmos 1697 Rocket 2.7 07:38:46 61° SSE 07:39:30 68° ESE 07:45:09 10° NNE
GEOS 3 Rocket 3.8 07:42:46 54° W 07:42:46 54° W 07:47:12 10° NW
CZ-4C R/B 4.3 07:44:53 41° NW 07:44:53 41° NW 07:47:57 10° NNW
Cosmos 2227 Rocket 2.4 07:39:21 10° NNW 07:45:01 67° ENE 07:47:50 30° SE
Cosmos 540 Rocket 4.0 07:46:55 44° SE 07:47:51 49° ESE 07:52:47 10° NNE
CZ-4B R/B 3.5 07:47:27 10° N 07:52:38 72° WNW 07:53:15 64° WSW
Meteor 2-1 Rocket 4.2 07:47:53 10° NNW 07:53:15 55° W 07:53:30 55° WSW
Cosmos 1656 4.1 07:54:05 43° W 07:54:55 47° WNW 08:00:22 10° N
NPP 3.7 07:49:57 10° N 07:55:15 59° WNW 07:55:57 54° WSW
FALCON 9 R/B 3.9 07:52:06 23° W 07:57:18 78° S 08:25:57 10° ESE
Cosmos 1812 Rocket 4.4 07:53:29 10° NNW 07:56:49 38° WNW 07:56:49 38° WNW
Meteor 2-10 Rocket 3.4 07:55:36 10° NNW 08:00:47 68° W 08:01:18 63° SW
Cosmos 990 Rocket 3.9 07:56:19 10° NNW 08:01:36 87° ENE 08:03:23 43° SSE
Alouette 2 Rocket 3.4 07:56:43 10° NNW 08:02:04 80° W 08:02:18 77° SW
Cosmos 1825 Rocket 3.7 08:03:30 59° WNW 08:03:30 59° WNW 08:07:34 10° N
Cosmos 1709 Rocket 4.3 08:06:14 41° WSW 08:07:22 45° W 08:13:14 10° N
Cosmos 2285 Rocket 4.4 08:01:45 10° NNW 08:08:04 63° ENE 08:14:19 10° SSE
Cosmos 841 Rocket 3.4 08:07:29 54° SSW 08:08:43 88° ESE 08:13:59 10° NNE
Cosmos-2242 2.8 08:07:36 10° N 08:11:51 76° W 08:12:04 73° SW
CZ-4C R/B 2.2 08:11:04 45° W 08:12:09 54° NW 08:17:41 10° NNE
CBERS-1 4.0 08:08:08 10° N 08:13:14 70° WNW 08:14:26 51° SW
STARLINK-1198 4.4 08:13:23 10° NW 08:17:27 52° NE 08:21:29 10° ESE
Cosmos 2369 3.9 08:18:04 42° WSW 08:19:39 57° WNW 08:25:14 10° NNE
STARLINK 1040 4.2 08:22:42 32° NE 08:22:42 32° NE 08:24:15 10° NE
STARLINK-1199 4.2 08:18:19 10° NW 08:22:24 57° NE 08:26:29 10° ESE
Cosmos 2360 4.2 08:23:05 41° SW 08:25:01 70° WNW 08:30:44 10° NNE
Cosmos 1763 Rocket 4.4 08:24:30 30° W 08:25:32 32° WNW 08:30:06 10° N
STARLINK-26 3.9 08:27:13 40° SE 08:27:14 40° SE 08:30:29 10° ENE
STARLINK-1210 4.0 08:23:17 10° NW 08:27:23 63° NE 08:31:30 10° ESE
USA 234 4.2 08:21:58 10° ENE 08:27:54 36° SE 08:31:40 20° S
Lacrosse 4 Rocket 2.5 08:24:20 10° NNW 08:28:28 45° ENE 08:32:27 10° SE
GP-B 3.8 08:24:44 10° NNW 08:28:48 36° W 08:29:04 36° W
IRS-1D 4.0 08:24:21 10° N 08:29:28 49° WNW 08:31:05 37° WSW
STARLINK-55 3.8 08:29:57 39° SE 08:29:57 39° SE 08:32:50 10° ENE
Meteor 1-28 Rocket 4.4 08:27:19 13° SE 08:30:26 41° ENE 08:34:00 10° N
Cosmos 1455 3.8 08:28:26 10° NW 08:30:25 21° WNW 08:30:25 21° WNW
IRS-1C 4.1 08:26:46 10° N 08:32:06 75° WNW 08:34:25 35° SSW
STARLINK-1219 3.8 08:28:14 10° NW 08:32:22 70° NE 08:36:29 10° SE
Cosmos 1980 Rocket 2.1 08:30:33 37° SSW 08:32:52 80° WNW 08:38:32 10° NNE
ATLAS 3B R/B 4.4 08:32:32 10° WNW 08:34:40 15° W 08:34:40 15° W
STARLINK-1211 3.7 08:33:12 10° NW 08:37:22 78° NE 08:41:30 10° SE
STARLINK-28 3.0 08:39:50 57° SSE 08:40:04 59° SE 08:43:13 10° NE
STARLINK-1317 4.4 08:39:26 28° SSE 08:40:05 31° SE 08:43:12 10° ENE
Cosmos 1892 4.5 08:37:02 12° SSE 08:40:06 29° E 08:43:25 10° NNE
Cosmos 2219 4.2 08:36:16 10° NW 08:40:50 26° WSW 08:40:51 26° WSW
STARLINK-1245 3.6 08:38:10 10° NW 08:42:19 86° NE 08:46:28 10° SE
H-2A R/B 3.1 08:38:32 10° SE 08:42:38 46° ENE 08:46:51 10° N
Cosmos 489 Rocket 4.4 08:39:49 29° SSW 08:43:08 76° WNW 08:49:24 10° NNE
STARLINK-41 3.4 08:44:31 42° SSE 08:44:55 45° SE 08:47:56 10° ENE
STARLINK-1291 4.2 08:46:26 29° SSE 08:47:09 32° SE 08:50:08 10° ENE
STARLINK-1233 3.5 08:43:09 10° NW 08:47:18 85° SW 08:51:26 10° SE
STARLINK-1264 4.1 08:48:47 29° SSE 08:49:36 34° SE 08:52:38 10° ENE
Cosmos 2074 Rocket 4.2 08:46:23 27° SSW 08:49:46 56° W 08:55:58 10° N
STARLINK-1267 4.1 08:50:30 30° SSE 08:51:22 36° SE 08:54:26 10° ENE
STARLINK-1204 3.5 08:48:09 10° NW 08:52:17 77° SW 08:56:24 10° SE
Cosmos 2297 Rocket 3.1 08:48:06 10° NW 08:52:41 26° WSW 08:53:29 25° WSW
STARLINK-1272 4.0 08:52:10 30° S 08:53:06 37° SE 08:56:13 10° ENE
STARLINK-1207 3.9 08:53:52 30° S 08:54:52 39° SE 08:58:00 10° ENE
ARIANE 5 R/B 2.6 08:50:22 10° N 08:55:19 59° WNW 08:58:05 25° SW
SJ 16-02 3.0 08:52:20 10° NW 08:54:43 18° W 08:54:43 18° W
STARLINK-1266 3.8 08:55:37 30° S 08:56:42 41° SE 08:59:51 10° ENE
STARLINK-1238 3.5 08:53:09 10° NW 08:57:16 69° SW 09:01:22 10° SE
STARLINK-33 2.8 08:56:40 44° SW 08:57:34 81° SE 09:00:46 10° NE
STARLINK-1284 3.7 08:57:24 30° S 08:58:32 44° SE 09:01:42 10° ENE
Cosmos 2082 3.9 08:53:15 10° NNW 08:58:39 49° WSW 09:04:02 10° S
SL-16 R/B 3.9 08:58:47 17° W 08:59:28 18° W 09:03:27 10° NW
STARLINK-1258 3.7 08:59:06 30° S 09:00:17 46° SE 09:03:30 10° ENE
Cosmos 2278 4.4 08:57:31 23° WSW 09:00:22 38° WNW 09:05:38 10° N
STARLINK-1292 3.6 09:00:04 31° S 09:01:14 46° SE 09:04:23 10° ENE
STARLINK-1201 3.5 08:58:09 10° NW 09:02:14 61° SW 09:06:18 10° SSE
ADEOS II 3.1 08:58:02 10° N 09:02:36 31° WNW 09:05:07 21° WSW
Cosmos 2184 Rocket 4.4 09:00:25 23° SW 09:03:57 44° W 09:09:48 10° N
STARLINK-1274 3.5 09:02:40 30° SSW 09:04:00 51° SE 09:07:16 10° ENE
STARLINK-1289 3.4 09:03:30 30° SSW 09:04:49 52° SE 09:08:02 10° NE
Cosmos 2263 Rocket 3.7 08:59:41 10° N 09:04:56 39° ENE 09:10:06 10° SE
Cosmos 2322 Rocket 3.2 08:59:49 10° S 09:05:04 42° ESE 09:10:20 10° NE
Cosmos 1869 3.4 09:01:30 10° N 09:05:23 71° E 09:09:13 10° SSE
Spot 4 Rocket 4.1 09:00:57 10° N 09:06:03 67° WNW 09:09:45 19° SSW
STARLINK-66 2.9 09:04:58 35° WSW 09:06:11 77° NW 09:09:23 10° NE
STARLINK-80 3.5 09:04:49 28° SSW 09:06:42 69° SE 09:10:28 10° NE
STARLINK-1303 3.4 09:05:29 29° SSW 09:06:53 55° SE 09:10:06 10° NE
STARLINK-1206 3.6 09:03:08 10° NW 09:07:11 54° SW 09:11:13 10° SSE
Cosmos 1400 Rocket 3.5 09:04:29 10° NNW 09:08:16 36° W 09:10:09 23° SW
Cosmos 1937 Rocket 4.3 09:03:50 10° NW 09:08:25 31° W 09:11:12 19° SSW
STARLINK-1312 3.3 09:08:02 28° SSW 09:09:36 60° SE 09:12:54 10° NE
Cosmos 1408 3.8 09:07:46 10° SSE 09:11:15 41° E 09:14:45 10° NNE
In-Cosmos 22 Rocket 4.3 09:05:54 11° S 09:11:26 87° E 09:17:06 10° N
Cosmos 2298 Rocket 4.0 09:06:36 10° NNW 09:11:56 88° WSW 09:17:14 10° SSE
STARLINK-1205 3.8 09:08:09 10° WNW 09:12:09 48° SW 09:16:08 10° SSE
Cosmos 1842 Rocket 3.6 09:08:08 10° NNW 09:12:35 63° W 09:16:57 10° S
Helios 1B 4.5 09:09:00 10° S 09:13:18 81° WSW 09:17:39 10° NNW
STARLINK-1283 3.3 09:13:00 24° SW 09:15:08 90° WNW 09:18:55 10° NE
STARLINK-1218 3.9 09:13:10 10° WNW 09:17:06 43° SW 09:21:01 10° SSE
STARLINK-75 3.0 09:15:39 25° WSW 09:17:19 67° NW 09:20:32 10° NE
Timation 1 Rocket 4.5 09:11:27 10° NNW 09:17:27 78° ENE 09:23:24 10° SSE
Landsat 5 3.6 09:17:11 10° S 09:21:40 83° WSW 09:26:13 10° NNW
STARLINK-1254 4.0 09:18:12 10° WNW 09:22:03 39° SW 09:25:54 10° SSE
CZ-2C R/B 2.8 09:19:13 10° N 09:22:52 58° WNW 09:25:48 15° SSW
SL-08 R/B 4.1 09:20:12 16° SSW 09:23:05 29° W 09:27:09 10° NW
IDEFIX/ARIANE 42P 2.6 09:18:56 10° N 09:24:09 65° WNW 09:29:09 11° SSW
Cosmos 1076 Rocket 3.5 09:21:19 12° SSW 09:25:14 68° W 09:29:36 10° N
STARLINK-58 3.2 09:23:21 20° SSW 09:25:23 60° SE 09:28:31 10° NE
STARLINK-1231 4.2 09:23:14 10° WNW 09:27:00 35° SW 09:30:46 10° SSE
STARLINK-22 3.0 09:25:02 20° SW 09:27:04 71° NW 09:30:15 10° NE
Cosmos 2227 Rocket 3.8 09:25:33 10° WNW 09:28:22 14° W 09:29:33 13° WSW
CZ-2D R/B 4.5 09:27:35 10° N 09:31:15 30° WNW 09:34:14 14° SW
Cosmos 1315 Rocket 2.8 09:27:28 10° NNW 09:31:19 57° W 09:35:09 10° S
Cosmos 1125 Rocket 3.7 09:26:32 10° NNW 09:31:45 77° ENE 09:36:56 10° SSE
COSMOS 2441 4.4 09:26:55 10° NNE 09:31:51 87° ESE 09:36:45 10° SSW
STARLINK-1232 4.3 09:28:17 10° WNW 09:31:58 31° SW 09:35:38 10° SSE
ERS-2 3.2 09:29:52 14° SSW 09:32:13 26° W 09:35:21 10° NW
SL-16 R/B 2.2 09:27:47 10° SSW 09:33:26 88° WNW 09:39:09 10° NNE
NOSS 2-1 (E) 2.9 09:31:37 14° SSW 09:34:31 90° NNE 09:37:57 10° NNE
CZ-4C R/B 3.5 09:32:17 10° S 09:35:40 41° W 09:39:07 10° NNW
SL-8 Rocket 4.1 09:29:35 10° S 09:35:54 83° E 09:42:13 10° N
STARLINK-1208 4.5 09:33:22 10° WNW 09:36:55 28° SW 09:40:28 10° S
Shenzhou-11 Module 3.1 09:35:27 14° SSW 09:37:02 25° SSE 09:39:09 10° E
ADEOS 4.4 09:34:04 10° NNE 09:39:10 52° E 09:44:14 10° S
STARLINK-1225 4.4 09:35:18 10° NW 09:39:22 55° NE 09:43:26 10° ESE
Cosmos 1825 2.4 09:37:51 10° S 09:41:35 70° E 09:45:19 10° NNE
Okean 3 Rocket 4.3 09:38:22 10° S 09:42:47 59° E 09:47:16 10° NNE
STARLINK-1230 4.2 09:40:15 10° NW 09:44:22 61° NE 09:48:27 10° ESE
ATLAS CENTAUR R/B 4.2 09:42:56 10° WNW 09:47:29 29° SW 09:57:08 10° S
STARLINK-42 4.3 09:46:08 10° W 09:48:59 29° NW 09:51:50 10° NNE
STARLINK-1243 4.0 09:45:13 10° NW 09:49:21 68° NE 09:53:27 10° SE
Cosmos 2221 3.6 09:47:42 10° NNW 09:51:20 27° W 09:54:59 10° SSW
STARLINK-48 3.5 09:47:45 10° SW 09:51:38 83° SE 09:55:31 10° NE
STARLINK-1278 4.4 09:47:39 10° SSW 09:51:44 47° SE 09:55:50 10° ENE
STARLINK-1311 3.9 09:49:23 10° WSW 09:52:06 32° NW 09:54:51 10° NNE
STARLINK-1316 3.7 09:49:31 10° WSW 09:52:26 39° NW 09:55:23 10° NNE
STARLINK-1301 4.0 09:49:49 10° WSW 09:53:04 39° NW 09:56:20 10° NNE
STARLINK-1257 3.8 09:50:25 10° WSW 09:53:21 38° NW 09:56:18 10° NNE
STARLINK-1280 4.4 09:49:29 10° SSW 09:53:34 49° SE 09:57:41 10° ENE
STARLINK-1256 3.8 09:51:20 10° WSW 09:54:15 37° NW 09:57:11 10° NNE
STARLINK-1236 3.9 09:50:12 10° NW 09:54:21 75° NE 09:58:28 10° SE
STARLINK-1213 3.9 09:52:15 10° WSW 09:55:09 36° NW 09:58:04 10° NNE
STARLINK-1263 3.9 09:53:09 10° WSW 09:56:02 35° NW 09:58:58 10° NNE
STARLINK-1307 3.9 09:52:51 10° WSW 09:56:10 42° NW 09:59:29 10° NE
PSLV R/B 3.6 09:52:12 10° N 09:56:21 61° WNW 10:00:28 10° SSW
Cosmos 2151 3.0 09:52:29 10° SSW 09:56:42 74° W 10:00:59 10° N
STARLINK-1259 3.9 09:54:06 10° WSW 09:56:59 35° NW 09:59:53 10° NNE
STARLINK-1265 3.9 09:54:35 10° WSW 09:57:29 35° NW 10:00:24 10° NNE
STARLINK-1290 3.9 09:54:23 10° WSW 09:57:36 40° NW 10:00:50 10° NNE
STARLINK-1285 4.0 09:55:00 10° WSW 09:57:51 34° NW 10:00:45 10° NNE
STARLINK-1268 4.0 09:56:27 10° WSW 09:59:17 33° NW 10:02:09 10° NNE
STARLINK-1296 4.0 09:56:51 10° WSW 09:59:42 33° NW 10:02:34 10° NNE
STARLINK-1297 4.0 09:57:01 10° WSW 10:00:12 38° NW 10:03:24 10° NNE
Cosmos 2058 4.3 09:56:59 10° SW 10:00:20 23° WNW 10:03:43 10° NNW
STARLINK-1260 4.1 09:57:45 10° WSW 10:00:36 32° NW 10:03:27 10° NNE
STARLINK-1318 4.1 09:58:41 10° WSW 10:01:30 31° NW 10:04:21 10° NNE
STARLINK-1275 4.1 09:59:34 10° WSW 10:02:22 31° NW 10:05:12 10° NNE
STARLINK-62 3.6 09:59:49 10° WSW 10:02:54 45° NW 10:05:59 10° NE
STARLINK-1300 4.4 09:59:19 10° SSW 10:03:18 48° SE 10:07:18 10° ENE
STARLINK-1309 4.2 10:00:30 10° WSW 10:03:18 30° NW 10:06:07 10° NNE
STARLINK-1282 4.2 10:01:24 10° W 10:04:11 30° NW 10:06:59 10° NNE
STARLINK-1269 3.6 10:00:07 10° NW 10:04:16 88° SW 10:08:24 10° SE
STARLINK-34 3.6 10:01:45 10° WSW 10:04:48 43° NW 10:07:51 10° NE
